Weather History for KFIT - June, 2014

Change the Weather History Date:

Friday, June 6, 2014

  Actual Average (KORH) Record (KORH)
Temperature  
Mean Temperature 66 °F 62 °F  
Max Temperature 75 °F 72 °F 94 °F (1925)
Min Temperature 57 °F 53 °F 41 °F (1945)
Degree Days  
Heating Degree Days 0 4  
Month to date heating degree days 29  
Since 1 June heating degree days 29  
Since 1 July heating degree days 6663  
Cooling Degree Days 1 2  
Month to date cooling degree days 9  
Year to date cooling degree days 31  
Since 1 June cooling degree days 9  
Growing Degree Days 16 (Base 50)    
Moisture  
Dew Point 52 °F    
Average Humidity 65    
Maximum Humidity 84    
Minimum Humidity 44    
Precipitation  
Precipitation 0.00 in 0.16 in 3.50 in (1986)
Month to date precipitation 0.94  
Year to date precipitation 20.17  
Sea Level Pressure  
Sea Level Pressure 29.80 in    
Wind  
Wind Speed 8 mph (NW)    
Max Wind Speed 15 mph    
Max Gust Speed 23 mph    
Visibility 10 miles    
Events      
T = Trace of Precipitation, MM = Missing Value Source: NWS Daily Summary

Daily Weather History Graph

Daily Weather History Graph

Search for Another Location

Airport or City:

Trip Planner

Search our weather history database for the weather conditions in past years. The results will help you decide how hot, cold, wet, or windy it might be!

Date:

Astronomy

Jun. 06, 2014 Rise Set
Actual Time 5:10 AM EDT 8:21 PM EDT
Civil Twilight 4:35 AM EDT 8:56 PM EDT
Nautical Twilight 3:51 AM EDT 9:40 PM EDT
Astronomical Twilight 2:58 AM EDT 10:34 PM EDT
Moon 1:29 PM EDT (6/6) 1:09 AM EDT (6/6)
Length of Visible Light 16h 20m
Length of Day
15h 11m
First Quarter, 58% of the Moon is Illuminated
Jun 6
First Quarter
Jun 13
Full
Jun 19
Last Quarter
Jun 27
New
Jul 5
First Quarter

Hourly Weather History & Observations

Time (EDT) Temp. Dew Point Humidity Pressure Visibility Wind Dir Wind Speed Gust Speed Precip Events Conditions
12:52 AM 60.1 °F 54.0 °F 80% 29.72 in 10.0 mi WNW 8.1 mph - N/A   Overcast
1:52 AM 60.1 °F 54.0 °F 80% 29.72 in 10.0 mi Variable 3.5 mph - N/A   Mostly Cloudy
2:52 AM 57.9 °F 53.1 °F 84% 29.72 in 10.0 mi NW 4.6 mph - N/A   Clear
3:52 AM 57.9 °F 53.1 °F 84% 29.73 in 10.0 mi WNW 3.5 mph - N/A   Clear
4:52 AM 59.0 °F 53.1 °F 81% 29.74 in 10.0 mi NNW 5.8 mph - N/A   Overcast
5:52 AM 59.0 °F 53.1 °F 81% 29.75 in 10.0 mi NW 8.1 mph - N/A   Overcast
6:52 AM 60.1 °F 53.1 °F 78% 29.77 in 10.0 mi WNW 9.2 mph - N/A   Overcast
7:52 AM 60.1 °F 53.1 °F 78% 29.78 in 10.0 mi NW 9.2 mph - 0.00 in   Overcast
8:52 AM 62.1 °F 51.1 °F 67% 29.80 in 10.0 mi NW 12.7 mph - N/A   Overcast
9:52 AM 64.0 °F 51.1 °F 63% 29.80 in 10.0 mi WNW 10.4 mph - N/A   Overcast
11:52 AM 71.1 °F 48.9 °F 45% 29.80 in 10.0 mi NNW 12.7 mph - N/A   Partly Cloudy
12:52 PM 73.0 °F 51.1 °F 46% 29.79 in 10.0 mi NW 11.5 mph 23.0 mph N/A   Partly Cloudy
1:52 PM 72.0 °F 51.1 °F 48% 29.80 in 10.0 mi NW 12.7 mph - N/A   Overcast
2:52 PM 72.0 °F 50.0 °F 46% 29.81 in 10.0 mi NW 13.8 mph 21.9 mph N/A   Overcast
3:52 PM 75.0 °F 52.0 °F 44% 29.80 in 10.0 mi WNW 15.0 mph - N/A   Partly Cloudy
4:52 PM 72.0 °F 51.1 °F 48% 29.81 in 10.0 mi WNW 13.8 mph 23.0 mph N/A   Overcast
5:52 PM 72.0 °F 52.0 °F 49% 29.82 in 10.0 mi NW 10.4 mph - N/A   Overcast
6:52 PM 72.0 °F 51.1 °F 48% 29.84 in 10.0 mi NW 10.4 mph 18.4 mph N/A   Clear
7:52 PM 70.0 °F 51.1 °F 51% 29.86 in 10.0 mi NNW 6.9 mph - N/A   Clear
8:52 PM 64.0 °F 53.1 °F 67% 29.87 in 10.0 mi North 3.5 mph - N/A   Clear
9:52 PM 60.1 °F 53.1 °F 78% 29.89 in 10.0 mi North 3.5 mph - N/A   Clear
10:52 PM 60.1 °F 53.1 °F 78% 29.90 in 10.0 mi NNW 5.8 mph - N/A   Clear
11:52 PM 59.0 °F 53.1 °F 81% 29.90 in 10.0 mi NNW 4.6 mph - N/A   Clear